Date String (YYYY-MM-DD hh:mm:ss) UTC,Instrument flags,Ambient pressure (hPa),Sample flow (lpm),Bypass flow (lpm),Sample temperature (°C),Ambient temperature (°C),ASC tube jacket temperature (°C),LED temperature (°C),Box temperature (°C),Sample RH (%),Span deviation,Mass concentration (μg/m³),Mass concentration (μg/m³),Mass concentration (μg/m³)
DateTimeUTC,F1_M11,P_M11,Q1_M11,Q2_M11,T1_M11,T2_M11,T3_M11,T4_M11,T5_M11,U1_M11,ZSPAN_M11,X0_M11,X2_M11,X1_M11
2022-08-30 10:00:00,,0832.7,5.00,0.00,30.0,28.4,00.0,38.8,31.8,23.2,0000.0,0016.19,0007.17,0005.86
2022-08-30 10:01:00,,0832.7,5.00,0.00,30.0,28.5,00.0,38.8,31.7,22.9,0000.0,0015.83,0007.16,0005.86
2022-08-30 10:02:00,,0832.7,5.00,0.00,30.0,28.6,00.0,38.8,31.8,22.7,0000.0,0015.13,0007.10,0005.85
2022-08-30 10:03:00,,0832.8,5.00,0.00,30.0,28.7,00.0,38.8,31.8,22.7,0000.0,0015.31,0007.07,0005.86
2022-08-30 10:04:00,,0832.7,5.00,0.00,30.0,28.7,00.0,38.8,31.8,22.9,0000.6,0014.12,0007.03,0005.85
2022-08-30 10:05:00,,0832.7,4.99,0.00,30.0,28.8,00.0,38.8,31.9,22.8,0000.0,0013.71,0007.04,0005.85
2022-08-30 10:06:00,,0832.7,5.00,0.00,30.0,28.8,00.0,38.9,31.9,23.0,0000.0,0013.77,0007.12,0005.87
2022-08-30 10:07:00,,0832.7,5.01,0.00,30.1,28.9,00.0,38.9,31.9,23.0,0000.0,0013.97,0007.17,0005.89
2022-08-30 10:08:00,,0832.7,5.00,0.00,30.1,28.9,00.0,38.9,31.9,22.9,0000.0,0014.61,0007.24,0005.90
2022-08-30 10:09:00,,0832.7,4.99,0.00,30.1,28.9,00.0,38.9,31.9,22.9,0000.0,0014.72,0007.24,0005.89
2022-08-30 10:10:00,,0832.7,5.01,0.00,30.1,29.0,00.0,38.9,32.0,22.9,0000.0,0016.31,0007.23,0005.90
2022-08-30 10:11:00,,0832.8,5.00,0.00,30.1,29.0,00.0,38.9,32.0,22.8,0000.0,0017.20,0007.20,0005.90
2022-08-30 10:12:00,,0832.8,4.99,0.00,30.2,29.0,00.0,38.9,32.0,22.9,0000.0,0018.15,0007.22,0005.90
2022-08-30 10:13:00,,0832.8,5.01,0.00,30.2,29.1,00.0,38.9,32.0,22.8,0000.0,0018.51,0007.27,0005.92
2022-08-30 10:14:00,,0832.8,4.99,0.00,30.2,29.1,00.0,38.9,32.0,22.6,0000.0,0018.35,0007.33,0005.91
2022-08-30 10:15:00,,0832.7,5.01,0.00,30.2,29.1,00.0,38.9,32.0,22.6,0000.0,0019.36,0007.37,0005.92
2022-08-30 10:16:00,,0832.7,5.01,0.00,30.2,29.1,00.0,38.9,32.0,22.5,0000.0,0020.38,0007.35,0005.92
2022-08-30 10:17:00,,0832.8,4.99,0.00,30.2,29.1,00.0,39.0,32.1,22.5,0000.0,0019.98,0007.26,0005.91
2022-08-30 10:18:00,,0832.8,5.00,0.00,30.2,29.2,00.0,39.0,32.1,22.4,0000.0,0019.45,0007.20,0005.91
2022-08-30 10:19:00,,0832.7,5.01,0.00,30.3,29.2,00.0,39.0,32.1,22.3,0000.0,0018.72,0007.13,0005.92
2022-08-30 10:20:00,,0832.7,4.98,0.00,30.3,29.2,00.0,39.0,32.1,22.3,0000.0,0018.31,0007.12,0005.94
2022-08-30 10:21:00,,0832.8,5.01,0.00,30.3,29.2,00.0,39.0,32.1,22.2,0000.0,0017.16,0007.17,0005.96
2022-08-30 10:22:00,,0832.8,4.99,0.00,30.3,29.2,00.0,39.0,32.1,22.2,0000.0,0016.41,0007.11,0005.98
2022-08-30 10:23:00,,0832.8,5.01,0.00,30.3,29.3,00.0,39.1,32.2,22.2,0000.0,0015.54,0007.05,0005.99
2022-08-30 10:24:00,,0832.7,5.01,0.00,30.4,29.3,00.0,39.1,32.2,22.1,0000.0,0015.21,0007.05,0005.98
2022-08-30 10:25:00,,0832.8,5.00,0.00,30.4,29.3,00.0,39.1,32.2,22.1,0000.0,0015.88,0007.03,0006.00
2022-08-30 10:26:00,,0832.7,4.99,0.00,30.4,29.2,00.0,39.1,32.2,22.1,0000.0,0015.62,0007.05,0006.02
2022-08-30 10:27:00,,0832.8,5.00,0.00,30.4,28.0,00.0,39.1,32.1,22.1,0000.0,0014.18,0007.04,0006.02
2022-08-30 10:28:00,,0832.8,5.00,0.00,30.3,27.0,00.0,39.0,32.0,22.2,0000.0,0014.00,0007.06,0006.03
2022-08-30 10:29:00,,0832.8,5.01,0.00,30.3,27.0,00.0,39.0,31.9,22.3,0000.0,0014.24,0007.07,0006.03
2022-08-30 10:30:00,,0832.7,5.00,0.00,30.1,27.2,00.0,38.9,31.7,22.4,0000.0,0014.59,0007.06,0006.02
2022-08-30 10:31:00,,0832.7,5.00,0.00,30.1,27.6,00.0,38.9,31.7,22.5,0000.0,0015.07,0007.10,0006.03
2022-08-30 10:32:00,,0832.7,4.99,0.00,30.1,27.8,00.0,38.9,31.7,22.6,0000.0,0015.04,0007.08,0006.04
2022-08-30 10:33:00,,0832.7,5.01,0.00,30.0,28.1,00.0,38.9,31.7,22.6,0000.0,0015.21,0007.05,0006.03
2022-08-30 10:34:00,,0832.8,5.00,0.00,30.0,28.3,00.0,38.9,31.8,22.6,0000.0,0016.20,0007.06,0006.03
2022-08-30 10:35:00,,0832.8,5.00,0.00,30.0,28.4,00.0,38.9,31.8,22.6,0000.0,0016.99,0007.04,0006.04
2022-08-30 10:36:00,,0832.7,5.00,0.00,30.0,28.5,00.0,38.9,31.8,22.6,0000.0,0016.13,0007.01,0006.03
2022-08-30 10:37:00,,0832.7,5.01,0.00,30.0,28.6,00.0,38.9,31.9,22.6,0000.0,0016.12,0006.98,0006.01
2022-08-30 10:38:00,,0832.7,5.00,0.00,30.0,28.7,00.0,38.9,31.9,22.6,0000.0,0016.97,0006.98,0006.02
2022-08-30 10:39:00,,0832.7,5.00,0.00,30.1,28.8,00.0,38.9,31.9,22.6,0000.0,0017.39,0006.99,0006.02
2022-08-30 10:40:00,,0832.7,5.00,0.00,30.1,28.8,00.0,38.9,31.9,22.6,0000.0,0018.05,0007.01,0006.02
2022-08-30 10:41:00,,0832.7,4.98,0.00,30.1,28.9,00.0,38.9,31.9,22.6,0000.0,0017.86,0007.05,0006.01
2022-08-30 10:42:00,,0832.7,5.00,0.00,30.1,28.9,00.0,38.9,31.9,22.5,0000.0,0017.45,0007.07,0006.02
2022-08-30 10:43:00,,0832.7,5.00,0.00,30.1,29.0,00.0,38.9,32.0,22.5,0000.0,0016.98,0007.06,0006.02
2022-08-30 10:44:00,,0832.7,5.00,0.00,30.1,29.0,00.0,38.9,32.0,22.5,0000.0,0016.71,0007.13,0006.03
2022-08-30 10:45:00,,0832.7,5.00,0.00,30.1,29.0,00.0,38.9,32.0,22.4,0000.0,0016.01,0007.16,0006.04
2022-08-30 10:46:00,,0832.8,5.00,0.00,30.2,29.1,00.0,38.9,32.0,22.4,0000.0,0015.47,0007.19,0006.04
2022-08-30 10:47:00,,0832.9,5.00,0.00,30.2,29.1,00.0,38.9,32.0,22.4,0000.0,0016.13,0007.23,0006.05
2022-08-30 10:48:00,,0832.9,5.00,0.00,30.2,29.1,00.0,38.9,32.0,22.4,0000.0,0016.32,0007.23,0006.07
2022-08-30 10:49:00,,0832.8,5.00,0.00,30.2,29.1,00.0,38.9,32.1,22.3,0000.0,0015.52,0007.24,0006.08
2022-08-30 10:50:00,,0832.8,5.00,0.00,30.2,29.2,00.0,39.0,32.1,22.3,0000.0,0015.58,0007.27,0006.08
2022-08-30 10:51:00,,0832.8,4.99,0.00,30.3,29.2,00.0,39.0,32.1,22.3,0000.0,0015.18,0007.31,0006.09
2022-08-30 10:52:00,,0832.8,5.00,0.00,30.3,29.2,00.0,39.0,32.1,22.3,0000.0,0015.47,0007.32,0006.10
2022-08-30 10:53:00,,0832.8,5.01,0.00,30.3,29.2,00.0,39.0,32.1,22.3,0000.0,0015.61,0007.30,0006.11
2022-08-30 10:54:00,,0832.8,5.01,0.00,30.3,29.3,00.0,39.0,32.2,22.3,0000.0,0016.21,0007.31,0006.11
2022-08-30 10:55:00,,0832.8,4.99,0.00,30.3,29.3,00.0,39.0,32.2,22.2,0000.0,0018.53,0007.34,0006.10
2022-08-30 10:56:00,,0832.9,5.00,0.00,30.3,29.3,00.0,39.1,32.2,22.2,0000.0,0018.65,0007.32,0006.12
2022-08-30 10:57:00,,0832.8,5.00,0.00,30.4,29.3,00.0,39.1,32.2,22.1,0000.0,0019.28,0007.36,0006.13
2022-08-30 10:58:00,,0832.8,5.00,0.00,30.4,29.3,00.0,39.1,32.2,22.1,0000.0,0020.11,0007.35,0006.13
2022-08-30 10:59:00,,0832.8,4.99,0.00,30.4,28.9,00.0,39.1,32.2,22.1,0000.0,0019.77,0007.33,0006.13
